www.pogodaiklimat.ru

Погода и климат >> Архив погоды >> Монголия >> Жаргалант


ПОГОДА в Жаргаланте

  • Прогноз погоды в Жаргаланте
  • Монитор погоды в Жаргаланте

АРХИВ ПОГОДЫ в Жаргаланте

Время (UTC), дата Ветер
(напр.,м/с)
 
Видим.   Явления Облачность Т
(С)
Тd
(С)
f
(%)
Тe
(С)
Тes
(С)
Комфортность P
(гПа)
Po
(гПа)
Тmin
(С)
Tmax
(С)
R
(мм)
R24
(мм)
S
(см)
00 14.06 ЮЗ 4
{9}
20 км 5/5 1000 м
[Sc]
+8.9 +0.6 56 +6 +7 1012.9 800.1 +6.9 0.3
03 14.06 З 4
{7}
20 км 8/8 1000 м
[Sc]
+9.2 +0.6 55 +7 +8 1013.0 800.4
06 14.06 З 1
{7}
20 км 10/10 1000 м
[Sc]
+11.2 +2.2 54 +11 +11 1010.8 800.0
09 14.06 В 1 20 км 10/10 1000 м
[Sc]
+10.4 +2.2 57 +10 +10 1011.0 799.6
12 14.06 СЗ 2 10 км слаб. дождь 10/0 600 м
[As op]
+8.9 +5.1 77 +7 +8 1012.9 800.1 +11.3 0.4
15 14.06 СЗ 4 20 км 9/9 1000 м
[Sc]
+8.8 +4.0 72 +6 +6 1013.7 800.7
18 14.06 З 6
{8}
20 км 9/9 1000 м
[Sc]
+9.8 +2.2 59 +7 +7 1012.5 800.4
21 14.06 З 4 20 км 8/0
[Ac und]
+7.8 +2.4 69 +5 +5 1013.4 800.6
00 15.06 штиль 0 20 км 8/0
[Ac und]
+9.7 +3.4 65 +9 +10 1013.3 801.0 +7.3
03 15.06 С 1 20 км 3/1 1000 м
[Cu hum Ci fib]
+14.8 +3.9 48 +15 +28 опасность
простуды
1008.5 800.5
06 15.06 С 3
{7}
20 км 4/4 1000 м
[Cu med, cong]
+18.0 +1.9 34 +18 +27 1004.9 799.7
09 15.06 З 6
{9}
20 км 5/4 1000 м
[Cb calv Ci fib]
+17.8 +4.7 42 +17 +20 1004.3 799.1
12 15.06 З 6
{12}
20 км 4/4 1000 м
[Cb calv]
+16.9 +5.8 48 +16 +16 1005.0 799.1 +19.0
15 15.06 ЮВ 3
{12}
20 км 3/0
[Ac cuf]
+15.2 +4.8 50 +15 +15 1008.2 800.5
18 15.06 З 2 20 км ясно +10.9 +6.0 72 +10 +10 1012.1 800.8
21 15.06 Ю 1 20 км ясно +9.0 +5.7 80 +8 +8 1014.0 801.1
00 16.06 С 2 20 км 3/0
[Ac lent]
+10.3 +5.1 70 +9 +11 1013.6 801.6 +7.2
03 16.06 С 1 20 км 4/4 1000 м
[Cu med, cong]
+16.2 +2.9 41 +17 +26 1008.4 801.3
06 16.06 З 4 20 км 6/6 1000 м
[Cb calv]
+18.4 +3.9 38 +18 +23 1005.1 800.1
09 16.06 З 7-10
{13}
20 км 5/5 1000 м
[Cb calv]
+20.1 +4.2 35 +20 +22 1002.8 799.3
12 16.06 З 7-11
{12}
20 км 4/3 1000 м
[Cb calv Ci]
+18.1 +5.0 42 +17 +18 1004.5 799.4 +20.3
15 16.06 З 5
{12}
20 км 3/0
[Ci]
+15.5 +5.7 52 +14 +14 1008.9 801.3
18 16.06 З 1
{6}
20 км 4/0
[Ac As]
+12.6 +6.0 64 +13 +13 1011.9 801.8
21 16.06 СЗ 1 20 км 6/0
[Ac As]
+12.7 +4.9 59 +13 +13 1012.6 802.4
00 17.06 З 4
{10}
20 км 6/0
[Ac lent Cc]
+12.5 +1.8 48 +11 +12 1014.0 803.4 +11.8
03 17.06 З 5
{11}
20 км 5/3 1000 м
[Cu med, cong Ac trans Cc]
+13.6 +0.6 41 +12 +16 1013.8 803.9
06 17.06 З 5
{11}
20 км 4/4 1000 м
[Cu med, cong]
+15.6 +0.6 36 +15 +21 1011.7 803.6
09 17.06 З 4
{10}
20 км 3/3 1000 м
[Cu med, cong]
+17.0 +2.2 37 +17 +22 1010.1 803.2
12 17.06 З 6
{9}
20 км ясно +15.6 +0.6 36 +14 +15 1011.5 803.4 +17.8
15 17.06 ЮЗ 4
{8}
20 км ясно +13.2 +0.2 41 +12 +12 1014.5 804.2
18 17.06 З 3 20 км ясно +9.9 -2.1 43 +8 +8 1017.7 804.6
21 17.06 З 3 20 км ясно +7.9 -2.7 47 +6 +6 1019.0 804.3
00 18.06 С 1 20 км ясно +8.8 +1.5 60 +9 +11 1019.2 805.0 +5.2
03 18.06 В 1 20 км ясно +16.3 -2.2 28 +17 +32 опасность
простуды
1012.1 804.3
06 18.06 С 1 20 км 4/0
[Ci fib]
+21.8 -2.8 19 +21 +41 комфорт 1005.5 802.5
09 18.06 З 6-10
{10}
20 км 3/0
[Ci]
+22.0 -2.0 20 +21 +25 комфорт 1004.5 801.8
12 18.06 З 3
{9}
20 км 8/0
[Ac und Cs]
+20.7 -2.4 21 +21 +22 комфорт 1005.5 801.8 +22.5
15 18.06 З 3
{8}
20 км 3/0
[Ac trans]
+17.4 -2.3 26 +17 +17 1009.0 802.6
18 18.06 З 2 20 км 3/0
[Ac trans]
+13.2 -2.3 34 +13 +13 1012.9 803.0
21 18.06 СЗ 2 20 км 8/0
[Ac As]
+9.9 -0.9 47 +9 +9 1015.9 803.2
00 19.06 СЗ 3 20 км 8/0
[Cs]
+11.4 +0.5 47 +10 +11 1016.0 804.2 +8.3
03 19.06 Ю 1 20 км 3/0
[Ci]
+18.3 -1.0 27 +19 +33 опасность
простуды
1010.2 804.1
06 19.06 СВ 2 20 км 1/0
[Ci fib]
+23.6 -2.1 18 +22 +40 комфорт 1004.1 802.5
09 19.06 З 7-11
{11}
20 км 6/3 1000 м
[Cu med, cong Cs]
+21.8 +1.4 26 +21 +24 комфорт 1005.1 802.2
12 19.06 З 5
{9}
20 км 8/0
[Ci]
+21.6 +3.3 30 +22 +22 комфорт 1005.5 802.4 +24.2
15 19.06 З 4
{8}
20 км 3/0
[Ci fib]
+19.0 +2.4 33 +19 +19 1008.5 803.2
18 19.06 З 3
{6}
20 км ясно +14.9 +1.1 39 +14 +14 1012.3 803.6
21 19.06 З 2 20 км 3/0
[Cc]
+11.4 +1.1 49 +11 +11 1015.7 804.0
00 20.06 штиль 0 20 км 3/0
[Ci fib]
+12.3 +4.0 57 +12 +15 1015.8 804.7 +9.4
03 20.06 В 3 20 км 3/0
[Cc]
+21.1 +3.3 31 +21 +31 комфорт 1008.3 804.3
06 20.06
{8}
20 км н/о +23.2 +5.1 31 +23 +27 комфорт 1006.7 804.3
09 20.06 З 4
{8}
20 км 5/5 1000 м
[Cb calv]
+23.1 +5.1 31 +23 +27 комфорт 1006.4 804.0
12 20.06 З 4
{8}
20 км 4/3 1000 м
[Cb calv Ac lent]
+21.3 +4.8 34 +22 +22 комфорт 1008.6 804.7 +23.9
15 20.06 З 2 20 км 4/0
[Ac As]
+18.0 +3.1 37 +19 +19 1012.8 806.0
18 20.06 З 3 20 км 5/0
[Cs]
+16.1 +2.1 39 +16 +16 1013.7 805.5

 

Местоположение метеостанции Жаргалант (Монголия): широта 46.92 долгота 91.08 высота над уровнем моря 1951 м.

В архиве по умолчанию представлена погода в Жаргаланте за последнюю неделю. Архивные данные за месяц целиком и за предыдущие месяцы, начиная с января 2011 года, Вы можете получить, выбрав интересующий диапазон дат из раскрывающегося списка и нажав кнопку "Ввод!".


*Определитесь, кто Вы:
робот инопланетянин человек

Внимание! Время в таблицах - всемирное. Для получения местного времени необходимо прибавить поправку, которая равна 8 ч.

Смотрите также архив погоды в соседних городах и на ближайших метеорологических станциях:

Погода в Байтаге (Монголия) (94 км)
Погода в Фуюне (Синьцзян-Уйгурский автономный район, Китай) (119 км)
Погода в Ховде (Монголия) (128 км)
Погода в Толбо (Монголия) (177 км)
Погода в Бейта Шан (Синьцзян-Уйгурский автономный район, Китай) (178 км)
Погода в Тонхиле (Монголия) (226 км)
Погода в Умнегове (Монголия) (238 км)
Погода в Углие (Монголия) (239 км)
Погода в Алтае (Синьцзян-Уйгурский автономный район, Китай) (243 км)
Погода в Завхане (Монголия) (260 км)

Пояснения к столбцам:

Ветер - указаны скорость ветра в м/с - средняя за 10 мин, порывы в срок и между сроками (в фигурных скобках) и направление, откуда дует ветер: С - северный, СВ - северо-восточный, В - восточный, ЮВ - юго-восточный, Ю - южный, ЮЗ - юго-западный, З - западный, СЗ - северо-западный.
Видимость - горизонтальная дальность видимости в метрах или километрах. При видимости от 1 до 10 км при отсутствии осадков обычно наблюдается дымка, при ухудшении видимости до 1 км и менее - туман. В сухую погоду видимость может ухудшаться дымом, пылью или мглою.
Явления - указаны атмосферные явления, наблюдавшиеся в срок или в последний час перед сроком; фигурными скобками обозначены явления, наблюдавшиеся между сроками (за 1-3 часа до срока); квадратными скобками обозначены град или гололедные отложения с указанием их диаметра в мм.
Облачность - указаны через наклонную черту общая и нижняя облачность в баллах и высота нижней границы облаков в метрах; квадратными скобками обозначены формы облаков: Ci - перистые, Cs - перисто-слоистые, Cc - перисто-кучевые, Ac - высококучевые, As - высокослоистые, Sc - слоисто-кучевые, Ns - слоисто-дождевые, Cu - кучевые, Cb - кучево-дождевые. Подробнее классификацию облаков см. в Атласе облаков (PDF).
T - Температура воздуха - температура, измеренная на высоте 2 м над землей.
Td - Температура точки росы - температура, при понижении до которой содержащийся в воздухе водяной пар достигнет насыщения.
f - Относительная влажность воздуха - влажноcть воздуха, измеренная на высоте 2 м над землей.
Te - Эффективная температура - температура, которую ощущает одетый по сезону человек в тени. Характеристика душности погоды. При расчете учитывается влияние влажности воздуха и скорости ветра на теплоощущения человека.
Tes - Эффективная температура на солнце - температура, которую ощущает человек, с поправкой на солнечный нагрев. Характеристика знойности погоды. Зависит от высоты солнца над горизонтом, облачности и скорости ветра. Ночью, в пасмурную погоду, а также при ветре 12 м/с и более поправка равна нулю.
P - Атмосферное давление - приведенное к уровню моря атмосферное давление.
Po - Атмосферное давление - измеренное на уровне метеостанции атмосферное давление.
Tmin - Минимальная температура - минимум температуры воздуха на высоте 2 м над землей.
Tmax - Максимальная температура - максимум температуры воздуха на высоте 2 м над землей.
R - Количество осадков - Количество выпавших осадков за период времени, мм. При наведении курсора мыши на число - период времени, за который выпало указанное количество осадков.
R24 - Количество осадков - Количество выпавших осадков за 24 часа, мм.
S - Снежный покров - Высота снежного покрова, см. При наведении курсора мыши на число - состояние снежного покрова и степень покрытия местности в баллах.